Flag for Norway Weather past 2 weeks in Horten, Norway

Now
41 °F

Partly sunny.


Feels Like: 34 °F
Forecast: 40 / 52 °F
Wind: 12 mph from East

Location: Oseberg

Current Time: Apr 25, 2015 at 7:17:53 AM

Latest Report: Apr 25, 2015 at 6:50 AM


Visibility: N/A

Pressure: 29.36 "Hg

Humidity: 87%

Dew point: 37 °F

Location of HortenLocation

Historic Weather in Horten — Graph

°F

Horten temperature yesterday

Maximum temperature yesterday: 43 °F (at 12:50 AM)
Minimum temperature yesterday: 37 °F (at 1:50 PM)
Average temperature yesterday: 40 °F

Past Weeks' High & Low Weather Summary

 TemperatureHumidityPressure
High50 °F (Apr 19, 2:50 PM)100% (Apr 10, 7:50 AM)30.48 "Hg (Apr 10, 7:50 AM)
Low37 °F (Apr 12, 8:50 PM)42% (Apr 13, 5:50 AM)29.39 "Hg (Apr 25, 5:50 AM)
Average44 °F80%29.99 "Hg
* Reported Apr 10 5:50 AM — Apr 25 5:50 AM, Horten, Weather by CustomWeather, © 2015

Note: Actual official high and low records may vary slightly from our data, if they occured in-between our weather recording intervals... More about our weather records

Advertising

Horten weather history for previous 24 hours

 ConditionsComfort  
Time TempWeatherWind HumidityBarometerVisibility
5:50 AM
Sat, Apr 25
41 °FSprinkles. Passing clouds.12 mph87%29.39 "HgN/A
4:50 AM45 °FLight rain. Passing clouds.7 mph76%29.42 "HgN/A
3:50 AM43 °FPassing clouds.7 mph76%29.45 "HgN/A
2:50 AM41 °FPartly cloudy.7 mph87%29.45 "HgN/A
1:50 AM41 °FPartly cloudy.7 mph87%29.45 "HgN/A
12:50 AM41 °FSprinkles. Partly cloudy.9 mph87%29.47 "HgN/A
11:50 PM
Fri, Apr 24
41 °FSprinkles. Passing clouds.10 mph81%29.47 "HgN/A
10:50 PM41 °FPartly cloudy.12 mph87%29.50 "HgN/A
9:50 PM41 °FSprinkles. Broken clouds.14 mph87%29.50 "HgN/A
8:50 PM39 °FDrizzle. Broken clouds.13 mph93%29.50 "HgN/A
7:50 PM39 °FDrizzle. Broken clouds.16 mph93%29.53 "HgN/A
7:20 PM39 °FSprinkles. Broken clouds.15 mph93%29.53 "HgN/A
6:20 PM39 °FLight rain. Broken clouds.15 mph93%29.56 "HgN/A
5:50 PM39 °FLight rain. Partly sunny.14 mph87%29.56 "HgN/A
5:20 PM41 °FLight rain. Partly sunny.15 mph81%29.56 "HgN/A
4:50 PM41 °FLight rain. Partly sunny.14 mph87%29.56 "HgN/A
4:20 PM39 °FLight rain. Partly sunny.13 mph93%29.59 "HgN/A
3:50 PM41 °FPartly sunny.12 mph87%29.59 "HgN/A
3:20 PM39 °FPartly sunny.12 mph87%29.62 "HgN/A
2:20 PM37 °FPartly sunny.9 mph93%29.62 "HgN/A
1:50 PM37 °FDrizzle. Partly sunny.7 mph93%29.65 "Hg6 mi
1:20 PM39 °FLight rain. Partly sunny.7 mph81%29.65 "Hg6 mi
12:50 PM39 °FPartly sunny.8 mph81%29.65 "HgN/A
12:20 PM41 °FPartly sunny.5 mph66%29.65 "HgN/A
11:50 AM41 °FPartly sunny.7 mph66%29.65 "HgN/A
11:20 AM41 °FPartly sunny.3 mph57%29.68 "HgN/A
10:50 AM41 °FPartly sunny.3 mph57%29.68 "HgN/A
10:20 AM41 °FPartly sunny.6 mph57%29.68 "HgN/A
9:50 AM41 °FPartly sunny.7 mph57%29.68 "HgN/A
9:20 AM41 °FPartly sunny.9 mph57%29.68 "HgN/A
8:50 AM41 °FPartly sunny.13 mph61%29.68 "HgN/A
8:20 AM41 °FScattered clouds.15 mph61%29.68 "HgN/A
7:50 AM41 °FBroken clouds.17 mph66%29.68 "HgN/A
7:20 AM41 °FBroken clouds.22 mph66%29.68 "HgN/A
Weather by CustomWeather, © 2015

See weather overviewHow to use our weather pages